Location: Epalinges
(46.5518°N, 6.6683°E)
Time: 01:58:20
(UTC+00:00)

NOSS 2-2 (C) - Pass Details

Date: 20 June 2021
Orbit: 454 x 1753 km, 63.3° (Epoch: 01 August)

Event Time Altitude Azimuth Distance (km) Brightness Sun altitude
Exits shadow 02:21:49 12° 250° (WSW) 1,474 5.0 -10.5°
Maximum altitude 02:24:43 37° 318° (NW) 752 4.1 -10.2°
Drops below altitude 10° 02:28:18 10° 28° (NNE) 1,777 7.4 -9.8°
Sets 02:30:49 0° 36° (NE) 2,808 9.3 -9.5°
